EW7939 Weather Reports


Display with metric or nautical units.
time (UTC)temp
F
wind
direction
speed
MPH
gust
MPH
rain 1hr
in
rain 24hr
in
rain mn
in
humidity
%
barometer
mb
20260509210104 83 239 3.0 9.0 0.00 0.07 0.01 35 1005.1
20260509204556 84 277 3.0 7.0 0.00 0.07 0.01 37 1005.3
20260509203053 83 251 6.0 12.0 0.00 0.07 0.01 35 1005.4
20260509201553 83 277 4.0 10.0 0.00 0.07 0.01 36 1005.6
20260509200052 82 226 3.0 9.0 0.00 0.07 0.01 37 1005.8
20260509194555 82 250 3.0 9.0 0.00 0.07 0.01 39 1005.9
20260509193045 81 296 2.0 10.0 0.00 0.07 0.01 40 1006.2
20260509191542 80 302 5.0 11.0 0.00 0.07 0.01 39 1006.3
20260509190040 80 275 3.0 7.0 0.00 0.07 0.01 42 1006.5
20260509184536 79 326 2.0 9.0 0.00 0.07 0.01 42 1006.6
20260509183036 78 244 1.0 10.0 0.00 0.07 0.01 47 1006.6
20260509181531 77 241 2.0 8.0 0.00 0.07 0.01 48 1006.7
20260509180027 76 265 3.0 6.0 0.00 0.07 0.01 54 1006.8
20260509174524 75 241 4.0 10.0 0.00 0.07 0.01 53 1006.9
20260509173029 75 257 4.0 10.0 0.00 0.07 0.01 57 1007.2
20260509171517 74 240 4.0 8.0 0.00 0.07 0.01 61 1007.5
20260509170016 72 274 5.0 9.0 0.00 0.07 0.01 64 1007.5
20260509164512 71 288 4.0 9.0 0.00 0.07 0.01 68 1007.5
20260509163010 70 194 2.0 6.0 0.00 0.07 0.01 74 1007.4
20260509161505 69 297 4.0 8.0 0.00 0.07 0.01 74 1007.4
20260509160103 68 283 3.0 8.0 0.00 0.07 0.01 77 1007.3
20260509154556 67 248 3.0 8.0 0.00 0.07 0.01 79 1007.3
20260509153100 65 233 4.0 8.0 0.00 0.07 0.01 81 1007.2
20260509151549 64 257 6.0 12.0 0.00 0.07 0.01 84 1007.2
20260509150044 62 265 4.0 9.0 0.00 0.07 0.01 88 1007.1
20260509144545 61 238 5.0 11.0 0.00 0.07 0.01 91 1007.0
20260509143037 60 295 4.0 9.0 0.00 0.07 0.01 92 1006.9
20260509141540 59 283 4.0 11.0 0.00 0.07 0.01 93 1006.8
20260509140038 58 267 5.0 10.0 0.00 0.07 0.01 94 1006.9
20260509134529 58 277 5.0 10.0 0.00 0.07 0.01 94 1006.8
20260509133026 57 252 3.0 9.0 0.00 0.07 0.01 94 1006.7
20260509131524 56 299 3.0 8.0 0.00 0.07 0.01 94 1006.7
20260509130020 55 285 2.0 5.0 0.00 0.07 0.01 94 1006.6
20260509124518 54 321 2.0 5.0 0.00 0.07 0.01 94 1006.4
20260509123016 52 334 0.0 1.0 0.00 0.07 0.01 93 1006.4
20260509121515 52 267 0.0 4.0 0.00 0.07 0.01 93 1006.2
20260509120015 51 268 0.0 2.0 0.00 0.07 0.01 93 1006.2
20260509114513 50 268 0.0 0.0 0.00 0.07 0.01 92 1006.1
20260509113012 50 268 0.0 2.0 0.00 0.07 0.01 92 1006.0
20260509111513 50 268 0.0 2.0 0.00 0.07 0.01 92 1005.8
20260509110011 50 268 0.0 1.0 0.00 0.07 0.01 92 1005.8
20260509104510 50 268 0.0 1.0 0.00 0.07 0.01 92 1005.7
20260509103010 51 268 0.0 2.0 0.00 0.07 0.01 92 1005.8
20260509101508 51 268 0.0 1.0 0.00 0.07 0.01 92 1005.8
20260509100007 51 268 0.0 1.0 0.01 0.07 0.01 92 1005.8
20260509094506 51 268 0.0 3.0 0.01 0.07 0.01 92 1005.9
20260509093007 51 268 1.0 4.0 0.01 0.07 0.01 92 1005.9
20260509091509 51 273 0.0 4.0 0.01 0.07 0.01 92 1005.8
20260509090005 51 307 0.0 3.0 0.00 0.06 0.00 92 1005.7
20260509084505 51 307 0.0 1.0 0.00 0.06 0.00 92 1005.7
20260509083004 51 307 0.0 2.0 0.00 0.06 0.00 92 1005.6
20260509081504 52 307 0.0 1.0 0.00 0.06 0.00 91 1005.7
20260509080003 51 307 1.0 3.0 0.00 0.06 0.00 92 1005.7
20260509074502 51 307 0.0 2.0 0.00 0.06 0.00 91 1005.7
20260509073005 51 307 0.0 1.0 0.00 0.06 0.00 90 1005.9
20260509071500 51 307 0.0 2.0 0.00 0.06 0.00 90 1005.8
20260509070100 51 307 0.0 1.0 0.00 0.06 0.00 90 1005.8
20260509064600 51 307 0.0 0.0 0.00 0.06 0.00 90 1005.8
20260509063102 52 307 0.0 1.0 0.00 0.06 0.00 90 1006.1
20260509061553 52 307 0.0 0.0 0.00 0.06 0.00 90 1006.1
20260509060108 53 307 1.0 2.0 0.00 0.06 0.00 90 1006.3
20260509054552 53 307 0.0 3.0 0.00 0.06 0.00 90 1006.3
20260509053059 53 307 0.0 3.0 0.00 0.06 0.00 90 1006.4
20260509051548 53 307 0.0 0.0 0.00 0.06 0.00 89 1006.5
20260509050044 53 307 0.0 2.0 0.00 0.06 0.00 89 1006.7
20260509044543 53 307 1.0 3.0 0.00 0.06 0.06 89 1006.7
20260509043051 53 307 0.0 0.0 0.00 0.06 0.06 88 1006.8
20260509041542 54 307 0.0 0.0 0.00 0.06 0.06 87 1006.8
20260509040057 54 307 0.0 0.0 0.00 0.06 0.06 87 1006.9
20260509034540 54 307 0.0 0.0 0.00 0.06 0.06 87 1007.0
20260509033101 55 307 0.0 0.0 0.00 0.06 0.06 87 1007.0
20260509031539 55 307 0.0 0.0 0.00 0.06 0.06 87 1006.8
20260509030039 55 307 0.0 0.0 0.00 0.06 0.06 86 1006.8
20260509024542 56 307 0.0 0.0 0.00 0.06 0.06 86 1006.8
20260509023038 56 307 0.0 0.0 0.00 0.06 0.06 85 1006.9
20260509021537 57 307 0.0 0.0 0.00 0.06 0.06 85 1006.6
20260509020036 58 307 0.0 0.0 0.00 0.06 0.06 86 1006.4
20260509014536 58 307 0.0 0.0 0.00 0.06 0.06 86 1006.0
20260509013035 59 307 0.0 0.0 0.00 0.06 0.06 85 1005.7
20260509011534 60 307 0.0 0.0 0.00 0.06 0.06 85 1005.7
20260509010037 61 307 0.0 0.0 0.00 0.06 0.06 86 1005.5
20260509004531 61 307 0.0 0.0 0.00 0.06 0.06 87 1005.8
20260509003034 60 307 0.0 2.0 0.00 0.06 0.06 86 1005.7
20260509001530 60 307 0.0 0.0 0.00 0.06 0.06 85 1005.4
20260509000028 60 307 0.0 0.0 0.00 0.06 0.06 85 1005.4
20260508234530 60 307 0.0 5.0 0.01 0.06 0.06 85 1005.7
20260508233032 60 321 0.0 3.0 0.02 0.06 0.06 84 1005.7
20260508231525 61 342 1.0 4.0 0.04 0.06 0.06 85 1005.4
20260508230022 61 225 1.0 5.0 0.06 0.06 0.06 84 1005.2
20260508224522 61 227 1.0 3.0 0.05 0.05 0.05 82 1005.9
20260508223016 61 246 0.0 3.0 0.04 0.04 0.04 81 1006.4
20260508221514 62 246 0.0 3.0 0.02 0.02 0.02 79 1006.6
20260508220013 62 246 0.0 3.0 0.00 0.00 0.00 79 1006.7
20260508214523 63 246 0.0 2.0 0.00 0.00 0.00 77 1006.7
20260508213013 63 246 1.0 3.0 0.00 0.00 0.00 77 1006.7
20260508211516 63 246 0.0 1.0 0.00 0.00 0.00 76 1006.6